Wind_Speed
24 24 24 24 25 26 27 28 29 30 31 32 33 33 34 34 34 35 35 36 36 36 37 38 39 39 40 40 41 42 43 44 45 46 47 48 48 49 48 47 47 46 46 46 45 45 45 46 46 47 46 46 45 44 43 43 43 43 43 42 42 43 45 46 47 47 46 46 46 45 44 44 44 43 42 41 41 41 41 40 39 39 37 35 32
24 25 25 25 26 27 28 29 31 32 32 33 34 35 35 35 35 36 36 36 36 37 38 39 39 40 40 41 42 43 44 45 46 47 48 49 49 48 47 47 47 46 45 44 44 43 44 46 47 48 48 48 48 47 47 46 46 46 45 45 44 44 45 45 45 45 44 44 44 44 44 44 43 43 43 42 41 41 41 40 40 39 38 36 33
24 25 26 27 27 28 29 30 31 32 33 34 34 35 36 36 36 36 37 37 38 38 38 39 40 40 41 42 43 44 44 46 46 47 48 48 48 47 47 47 47 47 46 45 45 45 46 47 48 49 49 50 50 50 51 50 50 49 46 45 45 45 45 46 46 45 44 42 43 44 44 44 44 43 43 43 42 42 41 40 40 39 38 37 35
24 25 27 28 27 28 29 30 31 32 33 34 34 35 36 36 36 37 38 38 38 39 39 39 40 41 42 42 43 44 45 46 46 47 47 47 47 47 47 46 46 47 47 47 48 49 49 50 50 51 51 51 51 52 53 53 52 50 48 46 46 45 45 46 46 46 45 44 43 44 44 44 44 44 43 42 42 42 42 41 40 39 38 38 36
27 27 29 30 30 30 31 32 32 33 34 34 34 35 35 36 36 37 37 37 38 38 38 39 40 41 42 42 43 44 45 45 46 46 46 47 46 46 47 48 48 48 49 50 50 51 52 53 53 53 54 53 53 53 53 54 53 51 50 48 47 46 46 46 47 47 46 45 45 45 45 44 44 44 44 43 42 43 43 42 41 40 39 38 36
30 30 32 33 33 33 33 34 34 34 34 35 35 35 35 35 36 36 36 36 37 37 38 39 40 41 42 43 43 44 45 45 46 45 45 46 47 48 49 51 51 52 52 52 53 53 54 55 55 55 55 55 54 53 52 53 53 52 51 51 50 49 48 47 47 47 46 46 47 47 46 45 44 44 45 44 43 43 43 43 42 41 39 38 37
32 32 33 34 34 34 34 35 35 35 35 35 35 35 34 34 34 34 35 35 37 38 39 40 41 41 42 43 44 45 45 46 46 45 46 47 49 50 52 53 54 54 55 55 55 55 55 55 55 55 55 55 55 54 53 53 53 53 52 52 52 51 51 50 50 48 46 45 46 47 48 47 44 43 44 45 44 44 44 44 43 41 40 39 38
33 33 34 35 35 35 35 34 34 33 34 34 34 33 33 34 34 34 35 36 37 38 39 40 41 42 43 44 45 45 46 47 48 48 49 50 51 52 53 54 55 55 55 55 55 55 55 55 55 55 55 55 55 55 55 55 54 54 53 53 53 53 53 52 52 51 48 45 45 45 46 47 46 44 43 44 45 45 45 45 44 42 41 40 39
33 34 35 35 35 35 35 34 33 33 33 33 33 33 33 33 34 35 36 36 37 38 39 40 41 42 43 44 45 46 48 50 50 50 51 51 52 54 55 55 55 55 54 54 54 55 55 55 56 56 55 55 55 55 55 55 55 54 53 53 53 54 54 54 53 52 51 48 45 44 45 46 47 46 44 44 44 45 46 45 45 43 42 41 40
34 35 35 35 35 36 36 35 35 36 35 35 34 34 33 33 34 35 36 36 37 38 39 41 42 43 44 45 46 48 51 52 52 52 53 53 53 54 55 56 56 56 56 56 56 57 57 57 57 57 57 57 57 58 57 57 57 56 55 55 55 55 55 54 54 53 53 51 48 46 45 45 46 46 46 45 45 46 46 46 46 44 43 42 41
34 35 35 35 36 36 36 36 36 36 35 34 33 33 32 33 33 34 35 36 37 39 40 42 43 44 45 46 48 50 52 53 53 54 54 54 54 55 56 57 57 58 59 59 60 60 60 60 60 60 60 59 60 61 60 60 61 60 59 59 58 57 57 56 55 55 54 53 51 49 47 47 47 47 47 47 46 47 48 48 47 45 44 43 42
32 33 33 34 34 35 34 34 33 33 32 32 32 32 32 32 33 34 35 37 38 40 41 42 43 44 46 48 50 52 54 54 55 55 54 54 54 56 58 58 59 59 60 61 62 63 64 64 64 64 65 64 64 65 65 65 65 64 64 63 62 60 59 59 58 57 56 55 54 52 51 49 49 48 48 48 48 48 49 49 48 47 46 44 43
31 31 32 32 32 32 32 32 32 31 31 31 31 32 32 33 34 35 36 38 39 40 41 42 44 46 48 50 52 54 54 55 55 55 55 55 57 58 59 60 61 62 63 64 65 66 67 68 68 69 70 71 71 70 70 70 69 68 67 66 65 63 62 62 61 59 59 58 57 55 54 53 51 50 49 49 49 49 49 49 49 49 47 45 44
31 31 31 31 31 31 32 32 32 32 32 31 31 32 32 33 35 36 38 39 40 41 42 44 46 48 50 52 53 55 55 55 56 56 56 57 58 59 61 62 63 65 67 68 69 70 71 71 72 73 73 74 75 76 75 75 74 73 72 70 68 66 65 64 63 62 62 61 59 57 56 55 54 52 52 51 50 50 50 50 50 50 49 47 45
32 32 31 31 31 31 32 32 31 31 30 30 31 32 33 34 36 37 38 40 41 42 44 46 48 50 51 53 54 55 56 56 57 57 57 58 59 61 63 64 66 68 69 71 72 74 75 76 77 77 77 78 79 80 80 80 79 78 77 75 73 70 68 66 65 64 64 63 62 60 58 56 56 55 54 53 52 52 52 51 51 50 50 49 47
31 31 31 31 30 29 29 30 29 29 30 31 32 34 35 36 37 38 39 41 42 44 46 48 49 51 52 54 56 57 57 57 58 58 58 60 61 63 65 67 69 71 72 74 76 77 79 80 81 82 82 83 84 84 85 85 84 83 83 81 78 75 72 69 67 66 66 65 64 62 59 57 57 56 55 54 54 54 54 52 51 51 51 50 48
32 30 30 30 29 28 29 29 30 31 32 33 34 35 36 37 38 39 41 42 44 45 47 49 50 52 53 55 57 58 58 58 58 59 60 61 63 65 67 69 72 74 75 77 79 81 82 84 86 87 87 88 89 89 89 88 87 86 85 83 80 77 73 70 68 68 68 67 66 63 60 58 58 57 56 56 55 56 55 53 52 52 52 50 48
33 32 31 31 31 30 30 32 33 34 35 35 35 36 36 37 39 40 42 44 45 47 48 50 52 53 55 57 58 59 59 58 59 60 61 63 65 67 70 72 74 77 78 80 82 84 86 88 90 92 92 91 90 89 87 86 85 83 81 79 76 73 70 69 68 68 68 67 65 64 61 59 57 57 56 56 56 57 57 54 53 53 52 50 49
34 34 32 32 33 32 32 33 34 35 35 35 35 36 37 38 40 41 43 45 47 48 49 51 53 55 57 58 59 59 59 59 60 61 63 65 68 70 73 75 78 80 82 84 86 88 90 92 92 91 88 85 82 79 77 77 76 74 73 71 67 64 62 63 64 64 65 65 63 62 58 52 49 50 50 49 51 56 57 55 54 53 51 51 50
35 35 34 34 33 33 32 32 32 33 35 35 36 36 37 39 41 42 44 46 48 49 50 52 54 56 58 58 58 59 59 60 61 63 65 68 71 73 76 79 81 83 86 88 90 92 92 91 87 82 77 74 72 70 67 66 66 65 63 62 59 55 52 53 54 55 57 59 59 56 51 45 44 45 43 41 44 51 55 55 53 52 50 50 49
35 36 36 35 34 33 33 32 32 33 34 35 36 36 37 39 42 43 45 47 48 50 51 53 55 57 58 57 58 59 60 61 63 65 68 70 73 76 79 82 84 86 89 91 94 93 90 84 78 72 69 66 64 61 58 56 55 54 53 53 51 48 44 43 42 44 47 51 53 50 45 42 43 41 39 39 41 44 47 48 48 47 46 47 48
35 36 35 35 34 33 33 33 33 33 34 35 36 37 38 40 43 45 47 48 49 51 52 54 56 57 57 57 58 59 60 62 64 67 70 72 75 79 81 84 87 89 92 94 93 89 82 75 70 65 62 58 55 52 49 46 44 42 41 41 40 38 36 33 32 34 36 40 45 45 43 43 43 40 38 40 41 40 41 42 43 43 44 45 45
37 35 35 34 34 33 33 34 34 34 35 36 37 39 40 42 44 46 47 49 50 51 53 55 55 56 56 56 58 59 61 63 65 68 71 74 77 80 83 86 89 92 94 93 88 80 73 67 61 57 55 52 50 48 45 41 37 33 31 28 27 26 25 23 23 25 27 31 35 38 39 40 40 38 37 38 41 43 43 43 44 43 42 41 41
37 36 35 34 33 33 34 35 35 35 36 37 38 40 42 44 45 46 47 48 50 52 53 54 55 55 55 57 59 60 62 64 67 70 73 75 78 81 84 88 90 92 92 87 79 72 65 58 53 51 50 49 47 45 41 36 31 27 23 20 18 17 16 14 14 16 19 22 26 30 34 38 37 34 33 33 36 39 41 42 42 41 37 36 37
37 37 36 34 34 34 34 36 36 36 36 38 40 41 43 45 46 46 47 49 51 53 53 54 54 55 56 58 60 61 63 66 68 71 73 76 79 82 85 88 91 91 86 78 70 63 56 49 47 48 48 47 46 43 37 31 26 22 19 17 15 14 12 8 7 9 12 15 18 22 28 33 33 30 29 28 29 30 33 34 34 32 31 30 32
37 36 36 35 34 34 35 36 36 36 38 39 41 42 44 45 46 46 47 49 52 53 53 54 55 55 57 59 61 63 65 67 69 71 74 77 80 83 86 88 89 85 77 69 62 55 46 42 43 45 45 46 46 44 38 32 26 22 18 16 15 13 10 7 3 1 5 9 12 17 23 26 26 26 26 25 25 26 26 26 26 27 28 28 29
37 36 35 35 35 35 35 36 37 38 39 40 42 44 45 45 46 46 48 50 52 53 53 54 55 56 58 59 61 63 66 68 70 72 75 78 81 84 87 88 86 78 69 62 56 46 37 36 40 41 41 40 41 42 40 38 35 29 24 20 18 17 16 13 10 6 5 6 10 16 21 20 19 21 22 21 21 22 22 22 24 26 27 27 28
37 36 35 35 35 36 36 36 37 38 40 41 43 44 45 45 45 47 49 51 52 54 54 55 56 57 59 60 62 64 66 68 71 73 77 80 82 84 87 87 82 73 64 59 53 41 32 33 36 36 34 34 36 38 38 37 37 35 30 26 23 22 21 18 13 10 8 7 10 14 14 12 13 16 18 19 20 21 21 22 23 23 24 26 27
36 35 34 34 35 35 36 37 38 39 41 42 43 44 45 45 45 47 49 51 53 54 55 56 57 58 59 61 62 64 66 69 72 75 79 82 84 87 87 84 76 68 61 57 50 38 29 30 31 29 29 31 33 35 35 34 34 33 31 28 25 22 20 17 13 10 8 8 9 9 8 9 11 14 16 17 18 20 20 20 20 21 21 23 26
36 34 33 34 34 35 36 37 38 40 41 42 43 44 44 45 46 48 50 51 53 54 55 56 57 58 60 61 63 65 67 70 73 76 80 83 86 87 85 78 70 64 58 54 48 36 27 27 28 27 27 29 30 30 31 30 28 28 26 23 21 20 19 16 13 11 9 7 6 6 7 8 11 12 14 15 16 17 18 20 20 21 21 23 25
36 34 33 34 34 35 36 37 39 40 41 43 44 44 44 45 46 48 50 52 53 54 55 56 57 59 60 61 63 66 69 71 74 77 80 83 85 85 82 73 66 61 56 52 47 37 26 24 26 26 26 27 27 26 25 24 22 21 20 17 16 16 14 13 11 10 8 6 3 3 5 7 10 12 14 15 17 17 18 19 20 20 21 23 24
36 35 34 34 35 36 37 38 39 40 42 43 44 44 44 45 47 48 50 52 53 53 54 56 58 59 60 61 64 67 69 71 74 77 80 83 84 83 78 69 62 59 55 51 46 38 27 21 22 24 24 24 24 23 22 20 18 16 15 13 12 12 10 9 7 5 3 3 4 5 7 10 12 15 16 18 18 18 18 18 19 20 21 21 22
35 35 34 35 36 37 38 39 40 41 42 43 44 44 45 46 48 49 51 52 53 53 54 56 58 59 60 62 64 67 69 71 74 77 80 82 82 80 75 67 60 57 54 50 45 39 29 22 20 21 21 21 21 21 20 19 16 15 14 13 11 10 10 9 7 6 6 7 8 9 11 13 14 16 17 17 17 18 18 17 17 18 19 19 20
34 34 34 35 35 37 37 38 39 41 42 44 44 44 45 46 48 50 52 52 53 53 54 55 57 59 60 62 64 67 69 71 74 77 79 80 81 79 73 65 57 54 53 50 46 40 32 25 21 19 19 18 18 19 19 18 16 14 14 14 13 12 12 11 9 8 8 9 10 11 12 13 13 14 15 15 15 15 15 15 15 17 17 16 16
32 33 33 34 35 36 37 39 40 41 43 44 44 45 45 47 48 50 52 53 53 54 55 56 58 58 60 62 64 66 69 71 73 76 77 79 80 78 72 62 55 52 51 49 47 43 36 28 22 20 18 17 17 17 17 16 16 15 15 15 15 15 15 14 13 12 11 12 12 12 13 14 14 14 14 14 13 13 13 13 15 16 17 15 14
33 32 33 34 35 37 38 40 41 42 43 44 45 45 46 47 48 50 52 52 53 54 55 57 58 58 59 61 63 66 68 70 72 74 76 78 79 77 71 62 54 50 49 48 46 44 40 33 26 22 20 18 17 16 16 15 16 15 15 15 16 17 17 17 16 15 14 14 13 13 13 14 14 14 14 13 12 12 12 13 14 16 18 16 15
34 33 33 35 36 37 39 40 41 42 43 44 45 45 46 47 48 50 51 52 53 53 55 57 57 58 59 61 63 65 68 69 71 73 76 77 78 77 71 63 54 50 49 47 45 44 42 38 31 25 22 21 19 17 16 16 16 16 15 15 15 16 16 17 17 17 16 15 13 13 13 14 14 13 13 12 11 10 11 12 13 16 19 17 15
34 33 33 35 36 37 39 40 41 43 44 44 45 46 46 47 48 50 51 52 52 53 55 56 57 57 58 60 63 65 67 69 70 72 74 76 77 76 72 63 55 50 48 47 45 43 42 40 36 30 24 22 22 20 18 16 15 15 15 15 14 15 16 17 18 18 16 14 12 12 13 14 13 13 12 12 10 9 9 11 13 15 18 19 17
34 33 33 34 36 38 39 40 42 43 44 45 45 46 46 47 48 50 51 51 52 53 55 56 57 57 58 60 63 65 67 68 70 71 73 75 76 76 71 64 55 50 48 47 45 43 42 41 39 35 29 24 23 23 22 19 16 14 14 14 13 14 15 17 18 17 16 13 12 12 13 13 13 13 12 11 9 8 7 9 11 14 17 18 18
34 33 34 34 36 38 40 41 43 44 44 45 45 46 47 48 49 49 50 51 52 53 55 56 56 57 58 60 63 65 66 68 69 71 73 74 75 75 71 64 56 50 48 47 46 44 42 41 40 38 35 29 23 23 24 23 20 17 14 13 13 13 14 16 17 16 15 13 12 11 12 12 12 12 12 10 9 7 7 8 10 12 14 16 18
34 34 34 35 36 38 40 42 43 44 45 45 45 46 47 48 48 49 50 51 52 53 54 55 56 57 59 61 63 64 66 67 69 70 72 73 75 74 71 65 57 51 47 47 46 45 43 42 41 40 38 35 28 23 22 24 24 21 17 15 14 14 13 14 15 16 15 13 12 11 11 11 11 10 10 10 9 7 6 8 9 10 11 13 15
36 35 35 35 36 38 40 42 43 44 45 45 45 46 47 48 48 49 50 51 51 52 54 55 56 57 58 60 62 64 65 67 68 69 71 72 73 73 71 65 58 52 48 47 46 45 44 43 41 41 40 38 35 28 21 21 23 23 22 19 16 14 14 13 13 13 14 13 12 11 11 11 11 10 10 9 8 7 6 7 8 10 11 11 13
37 36 36 36 37 38 40 42 44 44 44 45 45 46 47 48 48 49 50 50 51 52 54 55 56 57 58 60 61 63 65 66 67 68 70 71 72 72 70 66 59 53 48 47 46 46 45 44 42 42 41 40 39 34 26 19 19 21 22 21 19 17 15 13 12 12 13 13 13 11 11 11 11 11 10 9 8 7 6 6 8 9 10 11 11
37 37 37 37 37 38 40 42 43 44 44 45 45 46 47 48 48 49 50 50 51 52 54 55 56 57 58 60 61 62 64 65 66 67 69 70 71 72 70 66 60 54 49 46 46 45 44 44 43 42 41 41 41 39 34 25 17 17 19 20 20 19 17 15 12 11 11 12 13 12 11 11 10 10 9 9 8 8 6 6 7 8 9 10 10
38 37 37 37 37 38 40 42 43 44 44 44 45 46 47 48 48 49 50 50 51 52 54 55 56 57 58 59 60 62 63 64 65 67 68 69 70 71 70 67 61 55 49 46 45 45 44 43 42 42 41 41 41 40 38 33 23 16 16 18 18 18 18 16 13 12 11 11 11 12 12 11 10 9 9 9 9 8 7 5 6 7 8 10 10
38 38 37 37 38 39 40 42 43 44 44 44 45 46 47 48 48 49 50 50 51 52 54 55 56 57 58 59 60 61 62 64 65 66 67 68 69 70 69 67 62 56 50 46 45 44 44 43 42 41 41 40 40 40 39 37 32 22 15 16 17 17 17 16 14 12 12 11 10 10 11 11 11 10 10 10 10 9 8 6 5 6 7 9 10
39 39 38 38 39 39 41 42 43 44 44 44 45 46 47 48 49 50 50 50 50 52 53 55 56 57 58 59 59 61 62 63 64 65 66 67 68 69 68 66 62 57 51 47 45 44 44 43 43 42 41 40 39 39 39 39 36 30 20 15 16 17 17 16 15 14 12 11 10 10 10 11 11 10 10 10 10 9 9 8 6 5 6 8 10
39 39 39 39 39 40 41 42 43 43 44 44 45 46 48 49 49 50 50 49 50 52 53 55 56 57 57 58 59 60 61 62 63 64 65 66 67 68 68 66 63 58 52 47 45 44 43 43 42 42 41 40 39 38 38 38 37 35 29 20 14 16 17 16 15 15 14 13 11 10 10 11 11 11 11 10 9 8 9 9 7 6 6 7 10
39 39 39 39 39 40 41 42 43 43 43 44 45 46 48 49 50 50 49 49 50 52 54 55 56 57 57 58 58 59 60 61 62 63 65 65 66 67 67 66 63 59 53 48 45 43 43 42 42 42 41 40 39 38 37 37 36 36 34 28 20 15 16 17 16 15 15 14 13 12 11 11 12 11 11 10 9 8 8 9 9 8 7 7 9
39 39 39 39 39 40 41 42 43 43 43 43 45 46 47 49 50 50 49 49 50 52 54 55 56 57 57 57 58 59 59 60 61 62 64 65 65 66 66 65 63 59 54 49 45 43 42 41 41 41 40 40 39 38 37 36 36 35 34 32 27 20 16 17 18 17 16 15 15 14 13 12 12 12 11 11 10 8 7 8 9 9 8 7 7
38 38 38 38 39 40 41 42 42 42 43 44 45 46 47 48 49 49 49 49 50 52 54 55 56 57 57 57 58 58 59 60 61 62 63 64 64 65 65 65 63 60 55 49 45 43 42 41 40 40 40 39 39 38 37 36 35 35 34 33 31 26 19 16 17 18 17 16 16 15 14 13 13 12 12 11 11 9 8 7 8 9 9 8 7
Wind_Direction
311 306 301 297 295 294 292 290 289 289 289 290 291 293 296 298 300 302 302 303 304 305 305 305 305 306 307 307 308 309 309 310 310 309 309 310 310 311 312 312 311 310 309 308 306 304 304 305 306 307 307 307 307 306 305 304 303 302 300 297 294 290 287 285 283 281 278 277 276 275 274 274 274 275 276 277 278 279 280 281 281 281 282 283 287
312 308 303 299 296 294 293 291 291 292 292 294 296 297 299 301 302 302 303 304 305 305 305 306 307 309 310 310 311 311 311 311 310 310 310 310 311 311 312 311 310 309 308 306 304 304 304 305 307 308 307 307 306 305 304 303 302 301 300 298 295 292 290 288 287 285 282 278 276 276 274 273 272 272 274 275 275 276 277 278 279 279 280 281 283
313 309 304 301 300 298 296 295 295 296 296 297 298 299 301 302 303 304 305 306 306 307 308 309 311 312 313 313 313 313 312 311 311 310 310 310 311 311 311 310 310 309 309 308 307 307 307 307 307 306 305 305 305 304 303 303 302 301 299 297 295 293 292 290 289 288 286 282 279 277 275 273 272 272 272 273 274 274 275 275 276 277 278 279 281
314 312 308 305 304 303 302 302 302 302 302 302 302 302 304 305 306 307 307 308 308 309 311 313 314 314 314 314 313 313 312 311 311 311 310 311 312 311 311 311 311 310 310 309 309 309 308 307 306 306 305 304 304 304 303 302 302 301 299 297 295 293 292 290 289 288 286 283 281 279 277 274 273 272 272 272 272 273 273 273 273 274 275 277 279
317 315 312 311 310 311 310 309 309 310 308 308 308 308 309 309 309 308 308 308 309 311 313 314 314 314 314 314 313 313 312 312 311 312 312 312 313 314 314 313 312 311 311 311 310 310 309 308 308 307 306 305 304 303 302 301 301 300 298 297 295 293 290 288 287 286 284 283 281 279 277 275 273 273 272 270 270 271 272 272 271 272 273 274 276
320 318 317 315 315 316 315 314 314 314 313 312 312 312 311 310 308 308 308 309 311 313 314 315 315 314 314 314 314 314 313 312 312 314 315 315 316 316 316 315 314 314 313 312 311 310 310 309 308 307 306 305 304 303 301 300 299 298 297 296 295 293 291 288 286 284 282 281 280 279 278 276 274 272 272 270 269 269 269 270 270 270 272 272 272
322 320 319 318 318 317 316 315 316 315 314 314 313 312 311 309 308 309 310 312 314 315 315 315 315 315 316 315 315 314 314 314 315 318 319 319 318 318 317 316 315 315 314 313 312 311 310 309 308 307 306 305 304 302 301 299 297 297 296 295 294 292 291 289 287 285 282 279 277 277 277 276 273 271 270 270 269 269 268 268 268 268 270 271 270
323 321 319 319 319 317 315 315 315 314 314 313 313 312 311 310 311 313 315 316 316 316 316 316 317 316 316 315 315 316 316 318 320 322 321 320 318 317 317 316 315 314 314 313 312 311 310 309 308 306 305 303 302 300 299 297 296 296 295 293 292 291 291 290 289 287 285 281 277 275 274 274 273 270 268 268 268 268 268 268 268 267 267 269 269
323 321 320 320 319 316 316 317 317 316 316 316 315 315 315 316 317 318 318 318 317 317 317 318 317 317 317 318 319 320 320 321 322 322 321 319 318 317 317 316 315 315 314 313 311 310 309 308 307 306 304 302 300 298 297 296 295 294 293 291 290 289 289 289 288 287 286 283 279 276 273 272 272 270 267 266 266 267 267 267 267 266 266 267 268
325 323 323 321 320 319 321 321 320 320 320 320 319 320 320 320 320 320 319 319 319 319 318 318 319 319 320 321 321 321 321 322 322 321 320 319 319 318 317 316 316 315 314 313 312 311 310 309 307 306 304 302 300 299 298 296 294 293 291 290 288 287 287 286 285 284 283 282 280 277 273 271 270 269 268 266 265 265 266 265 265 265 264 265 266
324 323 322 321 321 322 322 321 320 320 320 320 320 321 321 322 322 322 322 321 320 319 320 321 322 322 322 322 321 321 322 322 322 322 321 320 319 318 317 317 316 316 315 314 313 312 311 310 308 306 305 303 300 299 298 296 295 293 292 290 288 286 285 284 283 281 280 280 279 277 274 270 268 268 267 266 265 264 264 264 263 263 263 263 264
322 322 322 322 322 321 320 319 319 319 319 320 323 324 326 326 325 324 322 320 321 322 323 323 323 322 322 322 322 322 323 323 322 322 321 320 319 318 317 317 317 317 316 315 314 313 312 310 309 308 306 304 301 300 298 297 295 293 291 290 288 286 284 282 281 279 278 278 277 276 274 272 269 267 265 264 263 263 263 263 262 262 262 262 262
323 324 323 322 321 320 319 320 322 323 324 326 329 329 329 327 324 323 322 322 323 324 324 323 323 323 323 322 323 323 323 322 322 322 321 321 319 318 318 319 318 317 317 316 315 314 312 311 310 308 306 305 302 300 299 297 295 293 291 289 288 286 284 282 280 278 276 275 275 274 272 271 268 266 264 262 261 261 260 261 261 261 261 261 261
328 328 327 326 326 326 325 326 327 328 329 331 330 328 326 324 322 323 324 325 325 324 324 324 323 323 323 323 323 324 323 322 322 322 321 321 320 319 320 320 319 318 317 316 315 314 312 311 309 307 305 304 302 300 298 296 294 292 290 288 286 284 282 280 279 277 275 273 272 271 269 268 267 265 263 261 260 258 257 257 258 259 260 260 259
331 333 332 331 332 331 329 329 329 329 329 327 325 324 323 324 325 326 326 325 325 325 325 325 324 324 324 323 323 323 323 323 323 322 322 321 320 320 321 320 319 319 318 317 315 314 312 310 308 307 305 303 301 299 297 295 292 290 288 286 284 281 279 278 276 274 272 270 269 267 266 265 265 263 262 261 259 258 256 255 255 257 258 258 258
334 335 334 333 333 332 329 328 327 325 325 324 324 325 326 327 328 328 327 326 326 326 326 325 325 324 324 323 323 323 323 323 323 323 322 322 322 322 321 321 320 320 319 317 316 314 312 310 308 306 304 302 300 297 295 293 290 288 286 284 281 279 276 274 272 269 267 266 266 265 264 262 262 261 260 260 259 258 256 255 255 255 255 256 257
334 335 334 332 332 331 328 326 326 325 326 327 328 329 329 328 328 328 327 327 327 327 326 326 325 324 324 324 323 323 324 324 323 323 322 322 322 322 322 322 322 320 319 317 315 314 312 310 308 306 304 302 299 296 294 291 288 286 284 281 279 277 274 270 266 264 263 262 262 262 261 259 258 258 258 258 258 257 257 255 255 255 254 254 255
333 335 335 332 331 331 330 328 328 328 329 329 329 329 330 329 329 330 329 328 328 327 326 326 325 325 325 324 324 324 324 324 324 324 323 323 324 324 324 323 322 321 319 317 316 314 313 311 309 307 305 303 300 298 295 292 290 287 284 281 279 276 272 268 263 260 259 258 258 257 257 257 257 256 256 256 255 255 256 255 254 254 254 254 254
334 334 334 332 331 331 330 329 329 328 328 329 330 331 331 331 331 331 330 329 328 327 327 326 326 325 325 325 324 324 324 325 325 325 325 326 326 326 325 324 323 321 320 319 317 316 314 313 311 309 307 305 303 301 298 296 293 291 288 286 282 278 273 268 264 259 256 255 255 254 254 254 254 253 253 254 254 253 253 253 253 253 253 253 253
333 333 333 332 331 330 329 329 329 328 328 330 332 332 332 332 332 331 329 328 328 327 327 327 326 326 325 325 325 325 325 326 327 327 328 328 328 327 326 325 324 323 322 321 319 318 316 315 313 312 311 309 307 305 302 299 297 295 292 289 286 282 276 271 266 261 256 252 251 251 250 248 249 249 248 248 249 250 251 252 253 252 250 250 251
331 332 332 331 331 331 330 330 331 331 330 331 332 333 333 332 331 330 329 329 329 328 328 327 326 326 326 326 326 326 327 328 329 329 330 329 328 328 327 326 325 325 324 323 321 320 319 319 318 317 316 315 313 311 308 305 302 299 296 293 290 285 279 273 267 261 255 250 247 245 242 239 242 244 242 240 242 246 249 250 250 250 249 249 250
331 332 332 331 331 332 330 331 333 332 331 332 334 334 333 332 331 331 330 330 330 329 328 328 327 327 327 327 327 328 329 330 331 331 330 330 330 329 328 328 327 327 326 325 324 324 324 324 324 323 323 323 322 321 318 314 310 307 303 300 296 291 283 274 266 259 254 248 244 240 234 231 236 240 239 236 237 240 245 247 249 253 254 253 249
332 333 332 331 332 332 332 332 334 334 333 334 334 333 333 332 332 331 331 330 330 329 329 328 328 328 328 328 329 330 331 332 332 332 332 332 331 330 330 330 329 329 328 328 328 328 329 329 329 331 333 333 333 332 329 325 321 320 318 315 312 306 294 279 266 257 250 244 240 236 230 227 232 240 243 241 241 242 247 251 253 256 257 252 245
332 333 333 332 333 334 333 332 334 334 333 334 334 333 333 333 332 332 331 330 330 330 330 330 329 329 330 330 331 332 332 332 333 333 333 333 332 332 332 332 331 331 331 331 332 333 332 334 339 343 344 344 344 344 340 334 332 335 338 341 342 335 319 294 269 253 245 240 235 230 224 221 227 239 247 249 249 249 251 253 254 253 251 245 239
333 333 334 333 334 335 334 333 333 334 333 334 334 334 333 332 332 331 331 331 331 332 331 331 331 332 332 332 333 333 333 334 334 334 334 334 333 334 334 334 334 334 334 335 336 336 336 341 349 352 353 356 357 356 352 346 344 350 357 3 7 2 349 326 282 251 237 229 224 222 219 217 223 235 241 244 250 253 251 248 245 241 238 235 234
334 334 334 333 334 334 333 332 333 334 334 334 333 333 332 332 331 331 332 332 333 333 333 334 334 334 334 334 334 334 334 335 335 335 335 335 335 335 336 336 337 337 338 339 340 339 340 347 354 356 360 4 7 9 10 8 7 11 17 21 25 23 19 16 4 248 209 204 203 203 204 206 216 230 236 241 249 251 244 236 233 233 235 235 236
335 335 334 333 333 334 333 332 333 334 334 333 332 332 332 332 332 332 333 334 334 335 335 336 335 335 336 335 335 335 336 336 336 336 336 336 337 337 338 339 340 340 341 342 342 342 345 353 357 357 1 7 13 18 23 24 25 28 32 37 44 47 48 49 52 72 114 153 176 183 188 200 218 230 237 243 244 239 234 235 240 244 243 241 239
335 335 334 333 332 332 333 333 334 334 333 333 333 332 332 332 333 334 334 335 336 337 337 338 337 337 336 336 336 337 337 336 336 337 337 338 339 340 341 342 343 344 344 345 346 346 350 357 359 358 2 10 16 19 22 26 29 31 33 39 45 50 53 53 54 62 86 126 160 174 187 210 226 226 230 235 236 236 241 247 250 250 248 243 241
334 334 333 331 331 332 333 333 334 334 333 333 332 332 332 333 335 335 335 337 338 339 339 339 338 338 337 338 338 338 337 337 338 339 340 341 342 344 345 345 346 347 347 348 348 348 351 357 359 359 4 12 16 17 18 22 28 31 32 34 37 42 48 53 56 59 79 121 156 173 193 207 209 215 225 234 240 247 251 253 254 253 250 246 243
333 333 332 331 331 333 334 334 334 333 332 332 332 333 334 335 335 336 337 339 340 339 340 340 339 338 339 339 339 338 338 339 341 341 343 344 345 346 347 348 348 349 349 349 349 348 349 354 356 357 3 9 13 14 16 20 27 34 35 32 34 38 43 47 53 63 81 107 142 171 190 198 207 221 235 245 254 259 257 256 257 256 251 246 242
332 332 332 331 332 334 334 334 333 333 332 332 333 334 335 336 337 338 339 340 340 340 340 340 339 340 340 340 339 340 340 341 342 344 345 346 347 348 349 349 350 351 351 351 350 348 345 349 352 353 359 6 10 13 16 20 27 36 38 35 36 42 50 58 67 78 89 91 106 186 214 228 236 245 256 264 268 267 261 257 254 251 248 243 237
331 332 332 332 333 334 334 334 333 333 333 333 334 335 336 337 339 340 341 341 341 341 340 340 340 340 340 340 341 341 342 343 344 346 347 349 350 350 350 350 350 351 352 352 351 348 342 341 346 350 354 2 8 11 14 16 22 31 34 33 34 38 44 53 58 55 43 356 319 290 276 273 269 270 275 276 273 269 264 255 247 244 242 238 232
330 330 331 333 334 334 334 333 333 333 334 334 335 336 336 337 339 341 342 342 342 342 341 341 341 341 341 342 342 342 343 344 346 347 349 351 351 351 351 351 351 352 354 354 353 349 342 334 336 344 349 354 2 7 6 6 11 17 20 21 24 20 14 11 8 357 341 326 314 303 295 290 287 286 285 280 274 268 260 249 242 238 235 233 230
329 329 330 332 333 333 333 332 333 334 335 336 336 336 337 338 340 341 342 342 342 342 342 342 342 342 343 343 343 343 344 346 347 349 351 352 352 352 353 352 352 352 353 354 354 352 345 332 325 333 341 345 351 357 359 357 358 360 360 1 4 3 358 353 344 332 320 312 308 306 304 303 300 297 293 286 277 268 256 245 240 233 227 226 226
328 328 329 330 332 333 333 333 334 335 336 336 337 337 338 340 341 341 341 342 342 342 342 343 343 344 344 344 344 344 345 347 349 350 352 352 353 354 354 354 353 352 353 355 356 355 351 339 323 319 327 334 338 343 348 351 350 348 346 347 350 351 351 348 342 331 317 306 300 301 309 314 311 303 298 292 282 269 257 247 238 228 220 217 215
327 327 328 331 333 333 334 334 335 336 336 336 337 338 339 341 341 341 342 342 342 342 343 344 345 345 344 344 344 345 346 348 349 351 352 353 354 355 355 354 354 353 354 356 357 357 356 349 334 316 312 318 325 328 332 338 341 342 342 342 342 344 345 344 341 335 325 313 302 297 305 315 315 309 303 298 287 272 258 247 236 225 216 212 208
327 327 329 331 333 334 334 335 335 336 336 337 338 339 340 341 341 342 342 342 342 342 343 344 345 345 344 344 345 346 347 348 350 351 353 354 355 355 355 355 355 355 355 357 357 358 358 355 347 329 310 305 310 315 319 324 330 335 336 335 338 341 340 338 339 338 329 318 304 294 300 313 319 316 312 305 294 278 258 243 232 220 212 210 209
326 326 328 330 332 333 334 335 335 336 336 337 338 339 340 341 341 341 342 342 342 343 344 345 345 345 345 345 345 346 348 349 351 352 354 355 356 356 356 356 355 355 356 357 358 359 359 358 355 345 325 305 299 302 307 313 320 327 329 330 334 337 334 333 339 341 334 323 307 294 300 314 322 322 320 312 300 285 259 238 228 219 215 214 212
325 325 327 329 331 333 334 336 336 337 337 338 339 339 340 341 341 341 341 342 342 344 345 345 345 345 345 345 346 347 348 349 351 353 354 355 356 357 357 357 356 355 356 357 358 359 359 359 358 355 344 322 301 293 295 300 305 314 321 323 326 329 332 336 341 340 334 326 315 305 307 315 320 321 321 316 304 287 263 238 228 223 221 220 217
325 325 326 327 330 332 335 336 337 337 337 338 339 340 341 341 341 341 341 342 343 345 346 346 346 345 345 346 346 347 348 350 352 353 355 356 357 358 358 357 357 356 356 357 358 359 360 360 0 359 356 344 322 299 289 290 293 297 305 312 316 319 326 336 343 342 334 324 319 318 317 316 315 319 322 319 308 291 266 245 234 228 226 226 223
327 326 326 327 329 333 335 336 337 337 337 338 339 340 341 341 340 340 341 342 344 345 346 347 346 346 346 346 347 348 349 351 352 354 355 356 358 358 358 358 357 356 356 356 358 359 359 360 1 1 1 356 345 323 298 287 287 289 292 299 305 310 318 329 340 345 341 330 322 322 322 319 319 323 325 320 312 297 272 249 239 233 230 229 226
328 327 327 327 329 332 335 336 337 337 338 338 339 341 341 340 340 341 341 342 343 345 346 347 347 347 346 346 347 348 349 351 353 355 356 357 358 359 359 358 357 356 356 356 357 358 359 360 1 2 2 1 357 346 321 294 284 284 287 290 293 299 308 317 328 337 341 339 332 324 321 324 326 327 327 324 316 302 280 255 241 236 232 230 230
329 328 327 328 329 332 335 336 336 337 337 338 340 341 341 340 340 341 341 342 343 345 347 347 348 348 347 347 347 348 350 351 353 355 356 357 358 359 359 358 358 357 356 356 357 358 359 359 0 1 2 3 2 359 347 319 288 278 281 285 286 288 295 304 313 322 332 339 339 331 325 326 328 327 326 326 320 308 291 264 246 238 233 231 231
329 328 328 329 330 333 334 335 336 336 337 339 340 341 341 340 341 341 341 342 343 345 347 348 348 348 348 347 348 349 350 352 354 355 356 357 358 359 359 359 358 357 356 356 357 358 358 359 0 1 2 3 4 3 360 347 316 283 275 279 282 284 287 293 301 310 319 329 335 333 327 325 328 333 337 334 325 317 303 276 256 245 237 234 233
328 328 328 329 330 332 334 335 336 336 337 339 340 341 340 341 341 341 341 342 344 345 347 348 349 349 348 348 348 349 350 352 354 355 356 357 358 359 359 359 358 358 357 356 356 357 358 359 0 0 1 2 3 4 4 0 347 313 280 272 277 282 284 286 291 299 306 313 321 328 330 327 326 331 338 336 330 324 315 293 269 253 243 238 236
328 327 328 328 330 332 334 335 335 336 337 339 340 341 341 341 342 341 341 342 344 346 347 349 349 349 349 349 348 349 350 352 354 355 356 357 358 359 359 359 358 358 357 356 356 357 358 359 0 1 1 2 3 4 5 4 0 345 309 277 271 276 281 282 281 285 293 300 308 319 328 330 327 324 326 327 326 324 321 311 290 266 253 246 240
327 327 327 328 330 332 333 334 335 336 337 338 340 340 341 342 342 341 341 343 345 347 348 349 349 349 349 349 348 349 350 352 354 355 356 357 358 359 359 359 359 358 357 356 356 356 357 359 360 1 1 2 2 3 4 5 5 0 344 306 276 271 278 282 280 277 282 291 302 311 320 327 329 326 321 320 320 320 320 319 311 291 272 258 249
327 326 327 328 330 331 332 333 334 336 337 338 339 340 341 342 342 341 342 343 345 347 348 349 349 350 350 349 348 349 350 352 353 355 356 357 358 359 359 359 359 358 357 356 356 356 357 358 359 0 1 2 2 3 4 4 6 5 360 343 305 275 269 274 278 278 277 282 293 303 310 318 325 325 322 319 320 319 318 318 319 314 294 271 256
326 326 326 327 329 330 331 332 334 335 336 337 339 340 341 341 341 341 342 344 346 348 349 349 349 350 350 349 349 349 350 351 353 355 356 357 357 358 359 359 359 358 357 356 356 356 356 357 358 359 0 1 2 2 3 4 5 6 6 360 343 306 276 268 271 275 276 277 282 290 297 305 314 320 322 320 320 320 317 314 316 320 314 288 262
325 325 325 326 327 329 330 332 333 335 336 337 338 340 340 340 340 340 342 344 346 348 349 349 349 350 350 349 349 349 349 351 353 354 356 356 357 358 359 359 358 358 357 356 355 355 356 357 358 359 359 0 1 2 2 3 4 6 7 6 0 343 308 279 269 270 273 275 276 279 286 293 301 309 315 317 315 314 314 312 310 313 319 310 279
325 324 324 324 326 328 330 332 333 334 335 337 338 339 340 340 339 340 342 345 347 349 349 349 349 350 350 350 349 348 349 350 352 354 355 356 357 357 358 359 358 358 357 356 355 355 355 356 357 358 358 359 0 1 1 2 3 4 6 7 7 2 346 312 282 271 270 273 274 275 278 283 290 297 305 310 310 307 305 305 303 302 308 315 302
Height
5789 5787 5786 5785 5784 5783 5781 5780 5778 5777 5776 5774 5772 5770 5769 5767 5765 5763 5761 5759 5757 5754 5752 5750 5748 5745 5743 5740 5737 5734 5731 5728 5725 5722 5718 5716 5713 5710 5707 5705 5702 5699 5696 5693 5690 5686 5683 5679 5676 5673 5670 5667 5665 5662 5659 5657 5654 5652 5649 5647 5646 5643 5642 5640 5640 5640 5641 5639 5638 5638 5637 5635 5634 5633 5632 5632 5631 5629 5629 5629 5628 5627 5627 5628 5627
5787 5785 5784 5783 5782 5780 5779 5777 5776 5774 5772 5770 5768 5767 5765 5763 5761 5759 5758 5755 5753 5751 5749 5746 5744 5741 5738 5735 5733 5730 5727 5723 5720 5717 5713 5710 5708 5705 5702 5700 5696 5694 5691 5688 5684 5681 5677 5674 5670 5666 5663 5660 5658 5655 5653 5650 5647 5645 5643 5641 5639 5637 5635 5633 5632 5632 5633 5632 5630 5629 5629 5628 5627 5626 5625 5625 5624 5623 5622 5622 5621 5620 5620 5621 5621
5785 5783 5781 5780 5779 5778 5776 5774 5773 5771 5769 5767 5765 5763 5761 5759 5757 5755 5754 5751 5749 5747 5745 5742 5739 5737 5734 5731 5728 5725 5722 5719 5715 5712 5709 5706 5703 5700 5697 5694 5691 5687 5684 5681 5677 5674 5671 5667 5664 5660 5657 5654 5651 5648 5645 5642 5639 5637 5636 5633 5631 5630 5627 5625 5624 5624 5624 5624 5623 5621 5621 5620 5620 5619 5618 5618 5617 5616 5616 5615 5615 5614 5613 5614 5615
5783 5781 5779 5777 5777 5775 5773 5771 5769 5767 5765 5763 5761 5759 5757 5755 5753 5751 5749 5747 5745 5743 5740 5738 5735 5733 5730 5727 5724 5721 5718 5714 5711 5708 5704 5701 5698 5695 5692 5689 5685 5680 5677 5674 5670 5667 5663 5660 5657 5653 5650 5647 5644 5640 5637 5634 5631 5629 5627 5626 5624 5622 5620 5618 5616 5615 5615 5616 5615 5614 5613 5613 5613 5612 5611 5611 5610 5609 5609 5608 5608 5607 5607 5608 5609
5780 5778 5776 5774 5773 5772 5770 5768 5766 5764 5762 5760 5758 5756 5753 5752 5750 5747 5745 5743 5741 5739 5737 5734 5732 5729 5726 5723 5720 5717 5714 5710 5706 5703 5700 5696 5693 5690 5686 5681 5678 5674 5670 5667 5663 5659 5656 5652 5648 5645 5641 5638 5636 5633 5629 5625 5623 5621 5619 5617 5615 5614 5612 5610 5609 5608 5607 5608 5608 5607 5606 5606 5605 5605 5604 5604 5603 5602 5601 5601 5601 5601 5601 5602 5602
5777 5775 5774 5772 5770 5769 5767 5764 5763 5761 5758 5756 5754 5752 5750 5748 5746 5744 5742 5740 5738 5735 5733 5731 5728 5725 5722 5719 5716 5712 5709 5705 5701 5698 5695 5691 5686 5683 5679 5674 5670 5666 5663 5659 5656 5652 5648 5644 5640 5636 5633 5629 5627 5624 5621 5618 5615 5613 5611 5608 5606 5605 5603 5602 5601 5600 5600 5599 5599 5599 5598 5598 5598 5598 5597 5596 5596 5596 5595 5594 5594 5594 5595 5596 5596
5775 5773 5771 5769 5768 5766 5763 5761 5759 5757 5755 5752 5751 5749 5747 5745 5743 5741 5739 5737 5734 5732 5729 5727 5724 5721 5718 5715 5711 5707 5703 5699 5696 5692 5689 5685 5680 5676 5671 5667 5663 5659 5655 5652 5648 5644 5640 5637 5633 5629 5625 5621 5618 5615 5612 5610 5607 5605 5602 5600 5597 5595 5594 5593 5592 5591 5592 5592 5591 5591 5590 5590 5590 5590 5589 5588 5588 5588 5588 5587 5588 5588 5588 5589 5589
5773 5771 5768 5767 5765 5762 5760 5758 5756 5754 5752 5750 5748 5746 5744 5741 5739 5737 5735 5733 5730 5728 5726 5723 5720 5717 5713 5709 5706 5701 5697 5693 5690 5687 5683 5678 5674 5669 5665 5661 5657 5653 5649 5645 5641 5637 5633 5629 5625 5621 5617 5614 5610 5606 5603 5600 5597 5596 5594 5591 5588 5586 5584 5583 5582 5582 5582 5583 5584 5583 5582 5582 5582 5582 5582 5581 5581 5580 5580 5580 5581 5582 5582 5582 5583
5771 5768 5766 5764 5762 5759 5757 5755 5753 5751 5749 5747 5745 5742 5740 5738 5736 5734 5731 5729 5727 5724 5722 5719 5716 5712 5708 5704 5699 5695 5691 5687 5684 5681 5677 5673 5668 5664 5659 5654 5650 5647 5643 5639 5634 5630 5626 5622 5618 5613 5609 5605 5601 5598 5595 5591 5588 5586 5584 5582 5579 5577 5575 5574 5573 5572 5572 5573 5574 5574 5574 5573 5573 5573 5574 5574 5573 5572 5572 5572 5573 5574 5575 5575 5576
5768 5765 5763 5761 5758 5756 5753 5751 5749 5747 5745 5743 5741 5739 5737 5735 5733 5730 5728 5726 5724 5721 5718 5714 5711 5706 5702 5698 5694 5690 5686 5683 5679 5675 5671 5666 5662 5657 5652 5648 5643 5639 5635 5631 5627 5622 5618 5614 5609 5605 5601 5596 5592 5588 5586 5582 5579 5576 5575 5572 5570 5568 5566 5565 5564 5563 5562 5563 5564 5564 5565 5565 5565 5564 5565 5565 5565 5565 5564 5565 5566 5567 5568 5568 5569
5766 5764 5761 5758 5756 5753 5751 5749 5747 5745 5743 5741 5739 5737 5734 5732 5730 5728 5725 5723 5720 5717 5713 5709 5705 5701 5698 5694 5690 5686 5682 5678 5674 5670 5665 5660 5656 5651 5646 5641 5637 5632 5627 5622 5618 5614 5609 5605 5600 5596 5591 5587 5582 5578 5576 5573 5569 5566 5564 5562 5561 5559 5557 5556 5555 5553 5552 5552 5553 5554 5555 5556 5556 5556 5556 5556 5557 5557 5556 5556 5558 5559 5560 5561 5562
5765 5762 5759 5756 5753 5751 5749 5747 5745 5743 5741 5739 5736 5734 5731 5729 5727 5725 5722 5719 5716 5712 5708 5705 5701 5697 5694 5690 5686 5681 5677 5673 5668 5664 5659 5654 5649 5644 5639 5634 5630 5625 5619 5614 5609 5604 5600 5595 5591 5586 5580 5576 5571 5567 5564 5561 5558 5555 5552 5550 5549 5548 5546 5545 5544 5543 5542 5541 5542 5543 5544 5545 5546 5546 5547 5547 5548 5548 5548 5548 5549 5551 5552 5554 5555
5763 5760 5757 5755 5752 5750 5748 5745 5743 5741 5738 5736 5733 5731 5729 5727 5724 5722 5718 5715 5711 5708 5704 5701 5698 5694 5690 5686 5681 5677 5672 5668 5663 5659 5654 5648 5643 5638 5632 5628 5623 5617 5611 5606 5601 5595 5589 5585 5580 5575 5569 5563 5558 5554 5551 5548 5545 5542 5539 5537 5536 5535 5534 5532 5531 5531 5530 5530 5530 5532 5533 5533 5534 5536 5537 5537 5538 5539 5539 5540 5540 5542 5544 5546 5548
5760 5758 5756 5753 5751 5748 5745 5743 5740 5738 5735 5733 5731 5729 5726 5724 5721 5717 5714 5710 5707 5704 5701 5698 5694 5690 5685 5680 5676 5672 5668 5663 5658 5653 5648 5642 5637 5631 5626 5621 5615 5610 5603 5597 5591 5586 5580 5574 5569 5564 5559 5552 5545 5540 5536 5533 5530 5527 5525 5523 5522 5521 5520 5520 5519 5518 5517 5517 5518 5520 5521 5522 5523 5525 5526 5526 5528 5529 5530 5531 5532 5533 5535 5538 5540
5758 5756 5754 5751 5749 5746 5743 5741 5738 5736 5733 5731 5729 5726 5723 5720 5717 5713 5710 5707 5704 5701 5697 5694 5689 5685 5681 5675 5671 5668 5663 5658 5653 5648 5642 5637 5631 5626 5620 5615 5609 5602 5596 5589 5582 5575 5569 5562 5557 5551 5546 5539 5532 5525 5520 5516 5513 5511 5508 5508 5507 5506 5506 5506 5505 5504 5503 5503 5505 5507 5510 5511 5511 5513 5515 5516 5517 5519 5520 5522 5523 5525 5527 5529 5531
5758 5755 5752 5749 5747 5744 5741 5739 5736 5734 5731 5728 5725 5722 5719 5716 5713 5710 5707 5704 5701 5697 5693 5689 5685 5680 5676 5671 5666 5662 5658 5653 5648 5642 5637 5631 5626 5620 5614 5608 5601 5595 5588 5580 5573 5566 5557 5549 5543 5537 5531 5525 5516 5510 5504 5498 5494 5491 5488 5487 5488 5489 5491 5491 5491 5489 5488 5488 5490 5493 5497 5499 5500 5501 5503 5505 5507 5508 5509 5512 5515 5516 5517 5520 5523
5756 5754 5750 5747 5745 5742 5739 5736 5733 5730 5728 5725 5722 5719 5716 5713 5710 5707 5704 5700 5697 5693 5689 5685 5680 5676 5671 5666 5661 5657 5653 5648 5642 5637 5631 5626 5620 5614 5608 5601 5594 5587 5580 5572 5563 5555 5547 5537 5528 5521 5515 5508 5499 5491 5484 5477 5473 5470 5467 5465 5466 5469 5472 5473 5473 5473 5473 5474 5476 5479 5483 5486 5488 5490 5493 5494 5496 5497 5498 5503 5505 5506 5508 5512 5515
5753 5751 5748 5744 5742 5739 5736 5733 5730 5727 5724 5722 5719 5716 5713 5710 5707 5704 5700 5697 5693 5689 5685 5681 5676 5672 5667 5662 5656 5651 5647 5643 5637 5631 5625 5620 5614 5607 5601 5594 5586 5578 5571 5563 5554 5544 5534 5524 5513 5502 5494 5487 5478 5470 5462 5454 5450 5448 5446 5444 5446 5448 5451 5452 5453 5455 5457 5460 5463 5466 5470 5474 5477 5480 5482 5484 5486 5486 5488 5492 5495 5496 5500 5504 5506
5750 5748 5745 5742 5739 5736 5734 5731 5728 5725 5722 5719 5716 5714 5710 5707 5704 5701 5697 5693 5690 5685 5681 5677 5672 5667 5662 5657 5652 5646 5642 5637 5632 5625 5619 5613 5606 5599 5592 5586 5578 5569 5560 5552 5543 5533 5521 5509 5498 5486 5475 5466 5457 5450 5443 5435 5430 5428 5425 5424 5426 5430 5432 5432 5434 5438 5442 5445 5449 5454 5460 5465 5467 5469 5472 5475 5476 5476 5478 5482 5485 5488 5492 5494 5496
5748 5745 5743 5740 5737 5735 5732 5729 5727 5723 5719 5716 5714 5711 5708 5704 5701 5698 5694 5690 5686 5682 5677 5673 5668 5663 5658 5652 5647 5642 5636 5632 5626 5619 5612 5605 5598 5591 5584 5576 5569 5560 5549 5538 5529 5519 5508 5496 5484 5472 5462 5452 5443 5435 5429 5422 5416 5412 5410 5408 5409 5413 5415 5416 5419 5423 5427 5431 5437 5442 5450 5456 5458 5461 5464 5466 5466 5466 5468 5472 5475 5479 5482 5485 5487
5747 5744 5741 5738 5735 5732 5729 5727 5724 5720 5717 5714 5711 5708 5705 5702 5698 5695 5691 5687 5682 5678 5674 5669 5664 5659 5653 5648 5643 5637 5632 5626 5620 5613 5606 5598 5591 5583 5575 5566 5557 5549 5539 5527 5514 5502 5491 5481 5470 5460 5450 5441 5431 5423 5417 5411 5405 5401 5398 5396 5396 5398 5401 5404 5407 5410 5414 5420 5426 5432 5440 5447 5450 5453 5456 5457 5458 5459 5462 5464 5467 5470 5473 5475 5478
5745 5742 5739 5735 5732 5730 5726 5723 5721 5718 5714 5711 5708 5705 5703 5699 5695 5691 5687 5683 5679 5674 5670 5665 5660 5655 5649 5644 5639 5633 5627 5621 5615 5608 5600 5593 5584 5575 5567 5557 5547 5537 5527 5515 5502 5489 5476 5466 5458 5449 5440 5432 5423 5415 5408 5403 5398 5393 5390 5388 5387 5388 5390 5393 5397 5401 5405 5410 5416 5423 5431 5438 5442 5445 5448 5450 5452 5454 5456 5458 5460 5462 5465 5467 5469
5743 5740 5737 5733 5730 5727 5723 5720 5718 5715 5712 5709 5706 5703 5699 5696 5692 5688 5684 5680 5676 5671 5667 5662 5656 5651 5646 5640 5635 5629 5623 5617 5610 5603 5595 5587 5579 5569 5560 5549 5539 5527 5514 5501 5489 5478 5467 5457 5449 5442 5434 5426 5419 5411 5403 5397 5393 5389 5386 5384 5383 5383 5384 5387 5390 5393 5397 5402 5408 5415 5423 5430 5436 5439 5442 5444 5446 5448 5450 5452 5454 5456 5457 5459 5461
5740 5737 5734 5730 5727 5724 5721 5718 5715 5712 5709 5706 5703 5700 5696 5692 5689 5685 5681 5677 5673 5668 5663 5658 5653 5647 5642 5636 5630 5625 5619 5612 5606 5598 5590 5582 5573 5564 5554 5543 5531 5519 5505 5491 5480 5470 5460 5452 5445 5438 5431 5424 5416 5408 5401 5395 5390 5387 5385 5383 5381 5381 5382 5384 5386 5389 5393 5398 5403 5410 5417 5424 5430 5435 5438 5440 5442 5443 5445 5447 5448 5450 5451 5453 5455
5737 5733 5730 5727 5724 5722 5718 5715 5712 5710 5707 5704 5700 5697 5693 5690 5686 5682 5678 5674 5669 5664 5659 5654 5649 5643 5638 5632 5626 5620 5614 5608 5601 5594 5586 5578 5569 5559 5549 5537 5524 5511 5497 5485 5474 5465 5457 5450 5444 5437 5430 5423 5416 5408 5401 5395 5390 5387 5385 5383 5382 5382 5382 5384 5386 5388 5392 5395 5400 5407 5413 5420 5426 5431 5433 5435 5436 5438 5439 5440 5442 5444 5446 5447 5450
5735 5731 5727 5724 5722 5719 5716 5713 5710 5708 5705 5701 5698 5694 5691 5687 5683 5679 5675 5670 5665 5660 5655 5650 5644 5639 5633 5627 5621 5615 5609 5603 5596 5590 5582 5574 5564 5554 5544 5532 5519 5506 5493 5483 5473 5465 5458 5451 5445 5438 5432 5424 5417 5410 5404 5398 5394 5390 5388 5386 5385 5385 5385 5386 5388 5390 5392 5396 5400 5405 5411 5417 5423 5426 5429 5431 5432 5433 5434 5436 5437 5439 5440 5442 5444
5732 5728 5725 5722 5719 5717 5714 5711 5708 5705 5702 5699 5695 5691 5688 5684 5680 5675 5671 5666 5662 5657 5651 5646 5641 5635 5630 5624 5617 5611 5604 5598 5592 5585 5578 5570 5560 5550 5538 5526 5514 5502 5491 5482 5473 5465 5459 5453 5447 5441 5435 5428 5422 5416 5411 5406 5401 5397 5394 5392 5391 5390 5390 5390 5392 5394 5396 5399 5403 5407 5411 5416 5421 5424 5426 5428 5429 5430 5431 5432 5433 5434 5436 5438 5440
5729 5726 5723 5720 5717 5714 5712 5709 5705 5702 5699 5696 5692 5688 5685 5681 5677 5672 5667 5663 5658 5652 5647 5642 5636 5631 5625 5620 5613 5606 5600 5593 5586 5579 5571 5563 5554 5544 5532 5519 5507 5496 5486 5478 5470 5463 5458 5454 5449 5444 5439 5434 5428 5422 5418 5413 5409 5405 5402 5400 5398 5397 5396 5396 5398 5400 5401 5403 5406 5410 5414 5417 5420 5422 5424 5426 5427 5427 5428 5429 5429 5430 5432 5433 5435
5726 5724 5721 5718 5715 5712 5709 5706 5703 5700 5696 5693 5690 5685 5681 5677 5673 5669 5663 5658 5653 5647 5642 5637 5632 5626 5621 5615 5609 5603 5596 5589 5581 5572 5562 5553 5543 5533 5521 5510 5499 5489 5481 5474 5468 5462 5458 5454 5451 5447 5442 5436 5431 5426 5422 5419 5415 5411 5409 5408 5406 5404 5403 5403 5404 5405 5406 5408 5411 5413 5416 5418 5419 5421 5422 5424 5425 5425 5426 5426 5427 5428 5429 5430 5432
5724 5722 5719 5716 5713 5710 5707 5704 5701 5697 5694 5691 5687 5683 5678 5674 5669 5665 5659 5654 5648 5643 5637 5633 5628 5622 5616 5610 5604 5598 5591 5584 5575 5566 5556 5545 5534 5524 5513 5502 5493 5485 5478 5472 5466 5461 5458 5455 5451 5447 5443 5438 5433 5429 5426 5423 5420 5417 5416 5415 5413 5412 5411 5410 5410 5410 5411 5413 5415 5416 5417 5418 5419 5420 5422 5423 5423 5423 5424 5424 5425 5426 5427 5428 5429
5721 5719 5717 5714 5711 5708 5704 5701 5698 5695 5691 5687 5684 5680 5676 5672 5667 5662 5656 5650 5645 5639 5634 5629 5624 5618 5613 5606 5600 5593 5586 5579 5571 5562 5552 5542 5530 5519 5509 5500 5492 5485 5478 5472 5466 5461 5458 5455 5451 5447 5443 5439 5435 5432 5429 5427 5425 5423 5421 5420 5418 5417 5416 5415 5415 5415 5415 5416 5417 5417 5418 5418 5418 5419 5420 5421 5421 5421 5421 5422 5422 5423 5424 5425 5427
5718 5716 5714 5711 5708 5705 5702 5699 5695 5692 5688 5684 5680 5676 5672 5668 5665 5660 5654 5648 5642 5637 5631 5625 5620 5615 5609 5603 5597 5590 5582 5575 5567 5558 5549 5538 5527 5516 5506 5498 5491 5484 5478 5471 5466 5461 5458 5455 5451 5448 5444 5441 5438 5434 5432 5430 5428 5426 5424 5422 5421 5420 5419 5418 5418 5417 5417 5417 5418 5418 5418 5418 5418 5419 5419 5419 5419 5419 5419 5419 5420 5420 5421 5423 5424
5716 5713 5711 5708 5705 5702 5699 5696 5693 5689 5686 5682 5677 5673 5669 5664 5660 5656 5651 5646 5641 5635 5629 5623 5617 5612 5606 5599 5593 5586 5578 5571 5563 5554 5545 5535 5525 5515 5506 5497 5490 5483 5477 5472 5466 5461 5457 5454 5451 5448 5445 5442 5439 5436 5434 5432 5430 5428 5426 5425 5423 5422 5421 5420 5419 5419 5418 5418 5418 5417 5417 5417 5417 5417 5416 5416 5416 5416 5416 5417 5417 5418 5419 5421 5422
5714 5711 5708 5706 5703 5700 5697 5694 5690 5687 5683 5679 5674 5670 5666 5661 5656 5651 5647 5643 5638 5633 5628 5622 5616 5609 5602 5596 5589 5582 5575 5567 5559 5550 5542 5533 5524 5515 5506 5497 5489 5483 5477 5472 5466 5461 5457 5453 5450 5448 5445 5443 5440 5438 5435 5433 5431 5429 5428 5426 5425 5424 5423 5421 5420 5419 5419 5418 5417 5417 5416 5416 5415 5415 5414 5414 5413 5413 5414 5414 5415 5416 5418 5419 5421
5712 5709 5706 5704 5701 5698 5695 5691 5687 5684 5680 5676 5672 5667 5662 5658 5653 5648 5643 5638 5633 5629 5624 5619 5613 5606 5600 5594 5587 5581 5573 5565 5557 5549 5541 5533 5524 5515 5506 5498 5491 5485 5478 5472 5466 5461 5456 5452 5449 5447 5445 5442 5440 5438 5436 5434 5432 5430 5429 5427 5426 5424 5423 5422 5421 5420 5419 5418 5417 5416 5416 5415 5414 5414 5413 5412 5411 5411 5411 5412 5413 5414 5416 5417 5419
5710 5707 5704 5701 5698 5695 5691 5688 5684 5681 5677 5673 5669 5664 5659 5655 5650 5646 5641 5635 5630 5625 5619 5614 5608 5603 5597 5591 5585 5579 5571 5564 5556 5549 5540 5532 5523 5514 5506 5498 5492 5485 5478 5472 5466 5460 5455 5451 5448 5446 5444 5441 5439 5437 5436 5434 5432 5430 5429 5427 5426 5424 5423 5421 5420 5419 5418 5417 5416 5416 5415 5414 5413 5412 5411 5410 5410 5409 5409 5410 5411 5412 5414 5416 5417
5706 5704 5701 5698 5695 5692 5689 5685 5682 5678 5674 5670 5665 5661 5657 5652 5647 5643 5638 5633 5628 5623 5617 5611 5606 5600 5595 5589 5583 5576 5569 5562 5555 5547 5538 5530 5521 5512 5504 5497 5490 5484 5478 5472 5466 5461 5455 5451 5447 5444 5442 5440 5438 5436 5435 5433 5431 5430 5428 5427 5425 5424 5422 5421 5419 5418 5417 5416 5415 5414 5414 5413 5412 5411 5410 5409 5408 5408 5408 5408 5409 5411 5413 5414 5416
5704 5701 5698 5695 5693 5690 5686 5683 5679 5675 5671 5667 5662 5658 5654 5649 5645 5640 5635 5630 5625 5620 5615 5609 5604 5599 5593 5587 5581 5574 5567 5560 5553 5545 5537 5529 5520 5511 5503 5495 5488 5483 5477 5471 5466 5461 5456 5451 5446 5442 5440 5438 5436 5434 5433 5432 5430 5429 5427 5426 5425 5423 5422 5420 5419 5417 5416 5415 5414 5413 5413 5412 5411 5410 5409 5408 5407 5407 5407 5407 5408 5410 5411 5413 5415
5701 5698 5696 5693 5690 5687 5684 5680 5676 5672 5668 5664 5660 5655 5651 5647 5642 5637 5633 5628 5623 5617 5612 5606 5601 5596 5591 5585 5579 5572 5565 5558 5551 5543 5536 5527 5519 5510 5502 5494 5487 5482 5476 5471 5466 5461 5456 5451 5446 5442 5438 5435 5433 5432 5431 5430 5429 5428 5426 5425 5424 5423 5421 5420 5418 5416 5415 5414 5413 5413 5412 5412 5410 5409 5408 5407 5406 5406 5406 5407 5408 5409 5410 5412 5413
5698 5695 5693 5690 5687 5684 5680 5676 5673 5669 5665 5661 5657 5652 5648 5644 5639 5635 5630 5625 5620 5614 5609 5604 5598 5593 5588 5582 5576 5570 5563 5556 5548 5541 5533 5525 5517 5508 5500 5493 5487 5481 5476 5471 5465 5461 5456 5451 5446 5442 5437 5434 5431 5429 5428 5427 5426 5425 5425 5424 5423 5422 5421 5419 5418 5416 5415 5414 5413 5412 5412 5411 5410 5409 5408 5407 5406 5406 5406 5406 5407 5408 5409 5410 5412
5696 5693 5690 5687 5684 5681 5677 5673 5670 5666 5662 5658 5654 5650 5645 5641 5637 5632 5627 5622 5617 5612 5607 5601 5596 5590 5584 5579 5573 5566 5560 5553 5546 5539 5531 5523 5515 5507 5499 5492 5486 5481 5475 5470 5465 5460 5456 5451 5446 5442 5437 5433 5429 5426 5424 5423 5423 5422 5422 5422 5421 5420 5419 5419 5417 5416 5414 5413 5412 5411 5411 5410 5409 5408 5407 5406 5406 5405 5405 5406 5406 5407 5408 5409 5410
5693 5690 5687 5684 5681 5678 5674 5670 5667 5663 5659 5655 5651 5647 5643 5638 5634 5629 5624 5619 5614 5609 5604 5599 5594 5588 5582 5576 5570 5564 5558 5551 5544 5536 5529 5522 5514 5506 5498 5491 5485 5480 5475 5470 5465 5460 5455 5451 5446 5442 5437 5433 5429 5425 5422 5420 5420 5419 5419 5419 5419 5419 5418 5417 5416 5415 5414 5413 5412 5411 5410 5409 5409 5408 5407 5406 5405 5405 5405 5405 5406 5406 5407 5408 5409
5688 5686 5684 5681 5678 5674 5671 5668 5664 5660 5656 5652 5648 5644 5640 5636 5631 5627 5622 5617 5612 5607 5601 5596 5591 5586 5580 5574 5569 5562 5556 5549 5542 5535 5528 5521 5513 5505 5498 5491 5485 5479 5474 5469 5464 5459 5455 5450 5446 5441 5437 5433 5428 5424 5421 5418 5417 5416 5416 5416 5416 5416 5416 5416 5415 5414 5414 5413 5411 5410 5410 5409 5408 5407 5406 5406 5405 5405 5404 5405 5405 5405 5406 5407 5408
5685 5682 5680 5677 5674 5671 5668 5665 5661 5657 5653 5649 5645 5641 5637 5633 5629 5624 5620 5615 5609 5604 5599 5594 5588 5583 5577 5572 5566 5560 5554 5547 5540 5533 5527 5520 5512 5505 5498 5491 5484 5479 5474 5469 5464 5459 5455 5450 5445 5441 5437 5432 5428 5424 5420 5417 5415 5414 5414 5414 5414 5414 5414 5414 5414 5413 5412 5412 5411 5410 5409 5408 5407 5407 5406 5405 5405 5404 5404 5404 5404 5405 5405 5406 5407
5682 5680 5677 5674 5671 5668 5665 5661 5658 5654 5650 5646 5642 5638 5634 5630 5626 5621 5617 5612 5607 5602 5597 5591 5586 5581 5575 5569 5564 5558 5552 5545 5539 5532 5525 5518 5511 5504 5497 5491 5484 5479 5474 5469 5464 5460 5455 5450 5446 5441 5437 5433 5428 5424 5420 5416 5413 5412 5411 5411 5411 5411 5412 5412 5412 5412 5411 5411 5410 5409 5408 5408 5407 5406 5405 5405 5404 5404 5403 5403 5403 5403 5404 5405 5405
5679 5676 5674 5671 5668 5665 5662 5658 5655 5651 5647 5644 5640 5636 5632 5628 5623 5619 5614 5609 5604 5599 5594 5589 5583 5578 5573 5567 5562 5556 5550 5544 5537 5531 5524 5517 5511 5504 5497 5490 5484 5479 5473 5469 5464 5460 5455 5451 5446 5442 5437 5433 5429 5425 5421 5417 5413 5410 5409 5409 5409 5409 5409 5409 5410 5410 5410 5409 5409 5408 5407 5407 5406 5405 5405 5404 5404 5403 5403 5402 5402 5402 5403 5403 5404
5676 5673 5670 5667 5664 5661 5658 5655 5652 5648 5644 5640 5637 5633 5629 5625 5620 5616 5611 5606 5601 5597 5592 5586 5581 5576 5571 5566 5560 5554 5548 5542 5536 5530 5523 5517 5510 5503 5496 5490 5484 5478 5473 5468 5464 5459 5455 5451 5446 5442 5438 5434 5430 5425 5422 5418 5414 5410 5408 5407 5407 5407 5407 5407 5407 5408 5408 5408 5407 5407 5406 5406 5405 5405 5404 5404 5403 5402 5402 5402 5401 5401 5401 5402 5402
5673 5670 5667 5664 5661 5658 5655 5652 5648 5645 5641 5637 5634 5630 5626 5622 5618 5613 5609 5604 5599 5594 5589 5584 5579 5574 5569 5564 5558 5553 5547 5541 5535 5528 5522 5516 5509 5503 5496 5490 5484 5478 5473 5468 5463 5459 5455 5451 5447 5443 5439 5435 5431 5427 5423 5419 5415 5411 5408 5406 5405 5405 5405 5405 5405 5405 5406 5406 5406 5405 5405 5405 5404 5404 5403 5403 5402 5402 5401 5401 5400 5400 5400 5400 5401
5669 5667 5664 5661 5658 5656 5653 5649 5646 5642 5638 5635 5631 5627 5623 5619 5615 5611 5606 5601 5597 5592 5587 5582 5577 5572 5567 5562 5557 5551 5545 5539 5533 5527 5521 5515 5509 5502 5496 5490 5483 5478 5472 5468 5463 5459 5455 5451 5447 5443 5439 5435 5431 5427 5424 5420 5416 5413 5409 5406 5404 5403 5403 5403 5403 5403 5403 5404 5404 5404 5404 5404 5403 5403 5403 5402 5402 5401 5401 5400 5400 5400 5399 5399 5400
5667 5664 5661 5658 5655 5652 5650 5646 5643 5639 5636 5632 5628 5625 5621 5616 5612 5608 5603 5599 5594 5590 5585 5580 5575 5570 5565 5560 5555 5549 5544 5538 5532 5526 5520 5514 5508 5502 5495 5489 5483 5477 5472 5467 5463 5459 5455 5451 5447 5443 5439 5436 5432 5428 5424 5421 5417 5414 5411 5407 5404 5402 5401 5400 5401 5401 5401 5402 5402 5402 5402 5402 5402 5402 5402 5402 5401 5401 5400 5400 5399 5399 5399 5399 5399
5664 5661 5658 5655 5652 5649 5646 5643 5640 5636 5633 5629 5625 5622 5618 5614 5610 5605 5601 5596 5592 5587 5583 5578 5573 5568 5563 5558 5553 5548 5543 5537 5531 5525 5519 5513 5507 5501 5495 5489 5483 5477 5472 5467 5463 5459 5455 5451 5447 5443 5440 5436 5432 5429 5425 5421 5418 5415 5412 5409 5405 5402 5400 5399 5398 5399 5399 5399 5400 5400 5400 5400 5400 5400 5400 5400 5400 5400 5399 5399 5399 5398 5398 5398 5398